Tracking 30417 objects as of 16-May-2025
HD Live streaming from Space Station
objects crossing your sky now

MOLNIYA 2-14

Track MOLNIYA 2-14 now!
MOLNIYA 2-14 is classified as:


NORAD ID: 8195
Int'l Code: 1975-081A
Perigee: 2,136.5 km
Apogee: 37,979.9 km
Inclination: 64.1 °
Period: 712.7 minutes
Semi major axis: 26429 km
RCS: 17.1549 m2 (large)
Launch date: September 9, 1975
Source: Commonwealth of Independent States (former USSR) (CIS)
Launch site: PLESETSK MISSILE AND SPACE COMPLEX (PKMTR)
Your satellite tracking list
Your tracking list is empty




NASA's NSSDC Master Catalog

Two Line Element Set (TLE):
1 08195U 75081A   25136.09757954  .00000875  00000-0  00000-0 0  9997
2 08195  64.0768  77.0836 6781022 286.5525  13.3000  2.02058537364389
Source of the keplerian elements: AFSPC